Location: Unspecified
(44.4751°N, 0.0000°E)
Time: 03:30:26
(UTC+00:00)

STRAND 1 - Visible Passes

Search period start: 04 April 2026 00:00
Search period end: 14 April 2026 00:00
Orbit: 761 x 775 km, 98.4° (Epoch: 28 March)

Date Brightness Start Highest point End Pass type
(mag) Time Alt. Az. Time Alt. Az. Time Alt. Az.
4 Apr ? 04:35:57 10° SSE 04:40:55 59° ENE 04:45:55 10° N visible
5 Apr ? 04:00:52 10° SE 04:05:11 29° ENE 04:09:31 10° N visible
5 Apr ? 19:26:41 10° NNW 19:30:04 18° WNW 19:33:27 10° WSW visible
6 Apr ? 03:26:50 10° E 03:29:39 15° ENE 03:32:28 10° NNE visible
7 Apr ? 04:27:18 10° SE 04:32:10 49° ENE 04:37:04 10° N visible
7 Apr ? 19:55:37 10° NW 19:56:51 11° NW 19:58:04 10° WNW visible
8 Apr ? 03:52:26 10° ESE 03:56:29 25° ENE 04:00:33 10° N visible
8 Apr ? 19:17:38 10° NNW 19:21:23 21° WNW 19:25:09 10° WSW visible
9 Apr ? 03:18:49 10° E 03:20:59 13° ENE 03:23:10 10° NNE visible
9 Apr ? 04:54:12 10° SSE 04:59:16 86° ENE 05:04:22 10° NNW visible
10 Apr ? 04:18:42 10° SE 04:23:26 41° ENE 04:28:11 10° N visible
10 Apr ? 19:45:58 10° NNW 19:48:11 13° WNW 19:50:25 10° W visible
11 Apr ? 03:44:03 10° ESE 03:47:47 21° ENE 03:51:32 10° NNE visible
11 Apr ? 19:08:36 10° N 19:12:42 25° WNW 19:16:47 10° WSW visible
12 Apr ? 03:11:11 10° ENE 03:12:20 11° NE 03:13:29 10° NE visible
12 Apr ? 04:45:27 10° SSE 04:50:29 73° ENE 04:55:33 10° N visible
13 Apr ? 04:10:08 10° SE 04:14:41 35° ENE 04:19:16 10° N visible
13 Apr ? 19:36:40 10° NNW 19:39:31 15° WNW 19:42:22 10° W visible
